Weather History for Elkins, WV

Change the Weather History Date:

Sunday, January 13, 2013

  Actual Average Record
Temperature  
Mean Temperature 56 °F 29 °F  
Max Temperature 68 °F 39 °F 71 °F (1932)
Min Temperature 43 °F 19 °F -20 °F (1912)
Degree Days  
Heating Degree Days 9 36  
Month to date heating degree days 386 468  
Since 1 July heating degree days 2648 2759  
Cooling Degree Days 0 0  
Month to date cooling degree days 0 0  
Year to date cooling degree days 0 0  
Growing Degree Days 6 (Base 50)    
Moisture  
Dew Point 47 °F    
Average Humidity 73    
Maximum Humidity 100    
Minimum Humidity 45    
Precipitation  
Precipitation 0.01 in 0.11 in 1.37 in (1960)
Month to date precipitation 0.23 1.34  
Year to date precipitation 0.23 1.34  
Snow  
Snow 0.00 in - - ()
Month to date snowfall 0.7  
Since 1 September snowfall 28.2  
Snow Depth 0.00 in    
Sea Level Pressure  
Sea Level Pressure 30.00 in    
Wind  
Wind Speed 4 mph (South)    
Max Wind Speed 21 mph    
Max Gust Speed 26 mph    
Visibility 7 miles    
Events Fog , Rain    
T = Trace of Precipitation, MM = Missing Value Source: NWS Daily Summary

Daily Weather History Graph

Daily Weather History Graph

Search for Another Location

Airport:

Trip Planner

Search our weather history database for the weather conditions in past years. The results will help you decide how hot, cold, wet, or windy it might be!

Date:

Astronomy

Jan. 13, 2013 Rise Set
Actual Time 7:37 AM EST 5:19 PM EST
Civil Twilight 7:07 AM EST 5:49 PM EST
Nautical Twilight 6:34 AM EST 6:21 PM EST
Astronomical Twilight 6:02 AM EST 6:53 PM EST
Moon 8:36 AM EST (1/13) 7:54 PM EST (1/13)
Length of Visible Light 10h 41m
Length of Day
9h 42m
Waxing Crescent, 5% of the Moon is Illuminated
Jan 13
Waxing Crescent
Jan 18
First Quarter
Jan 26
Full
Feb 3
Last Quarter
Feb 10
New

Hourly Weather History & Observations

Time (EST) Temp. Windchill Dew Point Humidity Pressure Visibility Wind Dir Wind Speed Gust Speed Precip Events Conditions
12:18 AM 42.8 °F - 42.8 °F 100% 30.03 in 2.0 mi Calm Calm - N/A   Clear
12:22 AM 44.6 °F - 42.8 °F 93% 30.03 in 0.8 mi Calm Calm - N/A   Clear
12:32 AM 44.6 °F - 42.8 °F 93% 30.03 in 0.5 mi Calm Calm - N/A Fog Fog
12:51 AM 43.0 °F - 42.1 °F 97% 30.04 in 0.8 mi Calm Calm - N/A   Mist
1:51 AM 43.0 °F - 42.1 °F 97% 30.02 in 0.2 mi Calm Calm - N/A Fog Fog
1:58 AM 42.8 °F - 42.8 °F 100% 30.01 in 0.5 mi Calm Calm - N/A Fog Fog
2:12 AM 42.8 °F - 42.8 °F 100% 30.00 in 2.0 mi Calm Calm - N/A   Mostly Cloudy
2:20 AM 44.6 °F - 42.8 °F 93% 30.00 in 4.0 mi Calm Calm - N/A   Mostly Cloudy
2:51 AM 43.0 °F - 42.1 °F 97% 30.01 in 3.0 mi Calm Calm - N/A   Overcast
3:51 AM 48.0 °F - 45.0 °F 89% 29.97 in 8.0 mi South 5.8 mph - N/A   Partly Cloudy
4:51 AM 57.0 °F - 48.9 °F 74% 29.96 in 10.0 mi South 4.6 mph - N/A   Clear
5:51 AM 55.0 °F - 48.0 °F 77% 29.97 in 10.0 mi SSE 6.9 mph - N/A   Clear
6:51 AM 57.0 °F - 48.9 °F 74% 29.98 in 10.0 mi South 9.2 mph - N/A   Clear
7:51 AM 52.0 °F - 46.0 °F 80% 30.04 in 10.0 mi SSE 4.6 mph - N/A   Clear
8:51 AM 46.0 °F 43.9 °F 43.0 °F 89% 30.08 in 10.0 mi North 4.6 mph - N/A   Clear
9:51 AM 55.9 °F - 48.9 °F 77% 30.08 in 10.0 mi Calm Calm - N/A   Clear
10:51 AM 64.9 °F - 46.9 °F 52% 30.06 in 10.0 mi Calm Calm - N/A   Mostly Cloudy
11:51 AM 66.9 °F - 46.9 °F 49% 30.02 in 10.0 mi Calm Calm - N/A   Mostly Cloudy
12:51 PM 68.0 °F - 46.9 °F 47% 30.00 in 10.0 mi SSW 11.5 mph 16.1 mph N/A   Overcast
1:51 PM 66.0 °F - 48.9 °F 54% 29.99 in 10.0 mi SW 4.6 mph - N/A   Overcast
2:51 PM 66.0 °F - 48.9 °F 54% 29.99 in 10.0 mi SSW 4.6 mph - N/A   Overcast
3:51 PM 66.2 °F - 48.2 °F 52% 30.00 in 10.0 mi SSW 4.6 mph - N/A   Overcast
4:51 PM 64.9 °F - 48.9 °F 56% 29.99 in 10.0 mi SSW 3.5 mph - N/A   Overcast
5:51 PM 61.0 °F - 48.9 °F 64% 29.98 in 10.0 mi Calm Calm - N/A   Overcast
6:51 PM 60.1 °F - 48.9 °F 67% 29.98 in 10.0 mi SSE 3.5 mph - N/A   Overcast
7:51 PM 62.1 °F - 48.9 °F 62% 29.96 in 10.0 mi Calm Calm - N/A   Overcast
8:51 PM 55.9 °F - 48.9 °F 77% 29.97 in 10.0 mi Calm Calm - N/A   Overcast
9:51 PM 63.0 °F - 50.0 °F 63% 29.93 in 10.0 mi SSE 4.6 mph - N/A   Scattered Clouds
10:51 PM 63.0 °F - 51.1 °F 65% 29.94 in 10.0 mi Variable 6.9 mph - 0.00 in Rain Light Rain
11:51 PM 59.0 °F - 53.6 °F 82% 30.02 in 10.0 mi West 11.5 mph - N/A Rain Light Rain